Tracking 32964 objects as of 21-Jan-2026
HD Live streaming from Space Station
objects crossing your sky now

THOR ABLESTAR DEB

Track THOR ABLESTAR DEB now!
10-day predictions


NORAD ID: 3125
Int'l Code: 1961-015HY
Perigee: 934.7 km
Apogee: 1,392.2 km
Inclination: 67.6 °
Period: 108.5 minutes
Semi major axis: 7534 km
RCS: 0.0125 m2 (small)
Launch date: June 29, 1961
Source: United States (US)
Launch site: AIR FORCE EASTERN TEST RANGE (AFETR)

Note: This is SATELLITE DEBRIS
Your satellite tracking list
Your tracking list is empty




NASA's NSSDC Master Catalog

Two Line Element Set (TLE):
1 03125U 61015HY  26019.59209981  .00000310  00000-0  64015-3 0  9998
2 03125  67.5548 209.5448 0303648 160.3409 266.6827 13.27470042127802
Source of the keplerian elements: AFSPC